User: anonymous   Login
Location: Boca do Mato
(22.9085°S, 43.2930°W)
Time: 18:52:53
(UTC+00:00)
Language:

Hubble Space Telescope - Orbit

View from above orbital plane
View from above orbital plane
View from above satellite
View from above satellite

Ground track
Ground track

The orbit data is extracted from the following two-line orbital elements,

1 20580U 90037B   20269.73663565  .00000525  00000-0  20921-4 0  9994
2 20580  28.4709  16.3608 0002915  90.2223  34.7918 15.09436017471220
Epoch (UTC): 25 September 2020 17:40:45
Eccentricity: 0.0002915
inclination: 28.4709°
perigee height: 536 km
apogee height: 540 km
right ascension of ascending node: 16.3608°
argument of perigee: 90.2223°
revolutions per day: 15.09436017
mean anomaly at epoch: 34.7918°
orbit number at epoch: 47122

The dashed part of the orbit path shows where the satellite is in the earth's shadow,  

DLR